星链-3686 (STARLINK-3686 )

导读

STARLINK-3686是美国太空探索技术公司(SpaceX)星链计划中的卫星,于2022年4月21日发射入轨,属于星链星座组网卫星,主要用于为全球提供高速互联网接入服务。星链计划通过大规模低轨卫星组网,旨在实现全球覆盖,推动偏远地区网络普及与全球互联。

Basic Information
目录编号:
52279
目录名称:
STARLINK-3686
国际标识:
2022-041U
轨道中心:
EARTH
卫星名称:
星链-3686
卫星全名:
星链-3686 (STARLINK-3686 )
卫星状态:
已陨落 最后检测时间 2024-03-30
发射日期:
2022-04-21 UTC
国别 :
美国 (US)
星等 :
--
Orbit Information
数据来源 国际轨道数据
星历时间: 2024-03-31T08:25:54+0800
轨道信息已过期804天
半长轴: 6522.281km
偏心率: 0.0019698
轨道倾角: 53.200°
近地点辐角 316.006°
升交点赤经 328.693°
平近点角 80.245°
近地点: 131.298km
远地点: 156.994km
周期: 87.369分钟
每日圈数: 16.481758
Detailed Information
固有亮度:
5
最大亮度:
2.5
卫星平台:
Starlink v1.5
覆盖范围:
全球
运营商:
太空探索技术公司
运营商所在国:
美国
制造商(研发单位):
太空探索技术公司
制造商所在国:
美国
使用方式:
暂无
Satellite Introduction
星链(Starlink)计划是由太空探索技术公司(SpaceX)提出的一个巨型低轨卫星互联网星座项目,计划在2019年至2024年间在太空搭建由约1.2万颗卫星组成的“星链”网络,其中1584颗将部署在地球上空550千米处的近地轨道,并从2020年开始工作。该卫星已陨落。